Agen Poker | Poker Online | Poker Uang Asli | Dewa Poker

Jackpot

Texas Poker Multi Jackpot System

Kini Telah hadir Jackpot SUPER ROYAL FLUSH

Kini Telah hadir Jackpot 2000 (khusus table VIP keatas).

Ikutilah global jackpot yang tersedia di system kami, dengan system jackpot terbaru dan pertama di indonesia, anda dapat membeli jackpot dengan harga 100 rupiah saja dan menangkan hadiahnya hingga puluhan juta rupiah.

Jackpot bukanlah suatu keharusan untuk dibeli, namun kami memberikan suatu fitur tambahan untuk member tercinta dari www.kudapk.com.

Terdapat tiga pilihan harga jackpot yang bisa anda beli yaitu :100,500,1000 dan 2000(khusus table VIP Keatas) rupiah.

Hadiah dari Multi jackpot system www.kudapk.com

  1. full house x 10 harga jackpot yang anda beli.
      (contoh:anda membeli 1000 maka:1000 X10 = 10.000)
  2. four of kind x 250 harga jackpot yang anda beli
      (contoh:anda membeli 1000 maka:1000 X250 = 250.000)
  3. Straight flush x 1200
      (contoh:anda membeli 1000 maka:1000 X1200 = 1.200.000)
  4. Royal flush x 10000 harga jackpot yang anda beli
      (contoh:anda membeli 1000 maka:1000 X10000 = 10.000.000)
  5. SUPER ROYAL FLUSH x 30000 harga jackpot yang anda beli
      (contoh:anda membeli 1000 maka:1000 X30000 = 30.000.000)

Kondisi kartu

  1. full house adalah kondisi kartu dimana kartu anda dan kartu tengah dengan total 7 kartu bisa mendapatkan nilai 5 kartu dengan kombinasi 1 tris(three of kind) dan 1 pair, contoh 3 kartu 10 dan 2 kartu 5
  2. Four of kind adalah kondisi kartu dimana kartu anda dan kartu tengah dengan total 7 kartu bisa mendapatkan nilai 5 kartu dengan kombinasi 4 kartu yang sama jumlah dan 1 kartu apapun juga contoh anda mendapatkan 4 buah kartu angka 3 dan 1 kartu apapun.
  3. Staright flush adalah kondisi kartu dimana kartu anda dan kartu tengah dengan total 7 kartu bisa mendapatkan nilai 5 kartu dengan kombinasi seri / staright dengan kembang yang sama contoh : urutan kartu dari angka 5, 6, 7, 8 , 9 10 dengan kembang yg sama misalnya as hati
  4. Royal flush adalah kondisi kartu dimana kartu anda dan kartu tengah dengan total 7 kartu bisa mendapatkan nilai 5 kartu dengan kombinasi seri / staright dengan kembang yang sama tetapi kartu tersebut haruslah dimulai dari 10. contoh 10, Queen, Jack, King dan aces dengan kembang yang sama
  5. Super Royal flush adalah kondisi kartu dimana Kedua kartu anda digabung dengan 3 kartu pertama meja haruslah royal flush. contoh kartu anda 10,Queen kembang sama dan 3 kartu pertama meja adalah Jack, King dan aces dengan kembang yang sama

Demikian adalah penjelasan dari Multi Jackpot www.kudapk.com terima kasih dan selamat bermain salam hoki dari kami

Texas Poker Jackpot Winner

TOP SUPER ROYAL FLUSH
No.TanggalNamaPriceWin
116/08 14:57KONDOM35Super Royal flush30,000,000
216/08 14:13RENTAM888Super Royal flush30,000,000
316/08 12:24MACACO88Super Royal flush30,000,000
416/08 08:40LANAI01Super Royal flush6,000,000
516/08 08:19GILAJUDI21Super Royal flush60,000,000
TOP ROYAL FLUSH
No.TanggalNamaPriceWin
116/08 15:19HUYENLAZYRoyal flush5,000,000
216/08 14:49WINSUP99Royal flush500,000
316/08 14:39ATOWAE1319Royal flush2,000,000
416/08 14:37PRATAMA169Royal flush5,000,000
516/08 14:24YHUK086Royal flush10,000,000
TOP STRAIGHT FLUSH
No.TanggalNamaPriceWin
116/08 15:20B56BE901Straight Flush120,000
216/08 15:17WATERGLOSSStraight Flush1,200,000
316/08 15:17ED947DD1Straight Flush240,000
416/08 15:15ARI2101Straight Flush600,000
516/08 15:15TWOP4IRStraight Flush600,000
LATEST JACKPOT
No.TanggalNamaPriceWin
116/08 15:20GACOR900Full House10,000
216/08 15:20DASTANPGFull House5,000
316/08 15:20AYU08Full House2,000
416/08 15:20H3TL3R33Full House10,000
516/08 15:20PAKCIK11Full House2,000
616/08 15:20M4RS4NDIFull House5,000
716/08 15:20GHOUL666Full House1,000
816/08 15:20GANSZAFRANFull House2,000
916/08 15:20HITM3NFull House5,000
1016/08 15:20UMAR_ALIFull House5,000
1116/08 15:20B56BE901Straight Flush120,000
1216/08 15:20RAIDHIFA9Full House5,000
1316/08 15:20RAMBAND01Full House10,000
1416/08 15:20TISON87Full House5,000
1516/08 15:20PAYPAY1Full House5,000
1616/08 15:20ABIEPETFull House1,000
1716/08 15:20CHO_45Full House5,000
1816/08 15:20DUITQU999Four Of A Kind50,000
1916/08 15:19ADHEL07Full House2,000
2016/08 15:19TOPA88Full House5,000
2116/08 15:19TIKAM296Full House10,000
2216/08 15:19BOLA97Full House5,000
2316/08 15:19TWOP4IRFull House5,000
2416/08 15:19FARHAN02Full House5,000
2516/08 15:19HUYENLAZYRoyal flush5,000,000
2616/08 15:19BEBEJOFull House10,000
2716/08 15:19MEROKOKFull House5,000
2816/08 15:19DIRA_112Full House2,000
2916/08 15:19ABUBATU01Full House2,000
3016/08 15:19BONTOT_123Full House2,000
3116/08 15:19U6V9OMN7ECFull House1,000
3216/08 15:19ILLU24Full House10,000
3316/08 15:19AEK8888Full House2,000
3416/08 15:19DEY1212Full House5,000
3516/08 15:19JUSTG4S32Full House1,000
3616/08 15:19ROO6EERFull House1,000
3716/08 15:19BOKAPLO89Full House1,000
3816/08 15:19ADINGHOTIFull House1,000
3916/08 15:19BIEE39Full House1,000
4016/08 15:19CARURKN55Full House2,000
4116/08 15:19YUHDI_RISFull House2,000
4216/08 15:19FAKE120Full House500
4316/08 15:19IJHONK123Full House2,000
4416/08 15:19HOAS88Full House10,000
4516/08 15:19GALAKGALOFull House5,000
4616/08 15:19CF600ED6Full House1,000
4716/08 15:19KAPTENWINFull House2,000
4816/08 15:19RUTAN90Full House10,000
4916/08 15:19PEACEPOTFull House5,000
5016/08 15:19CO_PANTEKFull House5,000

Domino Multi Jackpot System

Ikutilah global jackpot yang tersedia di system kami, dengan system jackpot terbaru dan pertama di indonesia, anda dapat membeli jackpot dengan harga 100 rupiah saja dan menangkan hadiahnya hingga puluhan juta rupiah.

Jackpot bukanlah suatu keharusan untuk dibeli, namun kami memberikan suatu fitur tambahan untuk member tercinta dari www.kudapk.com.

Terdapat tiga pilihan harga jackpot yang bisa anda beli yaitu :100,500 dan 1000 rupiah.

Hadiah dari Multi jackpot system www.kudapk.com

  1. Murni Kecil x 50 harga jackpot yang anda beli.
      (contoh:anda membeli 1000 maka:1000 X 50 = 50.000)
  2. Murni Besar x 50 harga jackpot yang anda beli
      (contoh:anda membeli 1000 maka:1000 X 50 = 50.000)
  3. BALAK x 100 harga jackpot yang anda beli
      (contoh:anda membeli 1000 maka:1000 X 100 = 100.000)
  4. ENAM DEWA x 6666 harga jackpot yang anda beli
      (contoh:anda membeli 1000 maka:1000 X 6666 = 6.666.000)

Demikian adalah penjelasan dari Multi Jackpot www.kudapk.com terima kasih dan selamat bermain salam hoki dari kami

Domino Jackpot Winner

TOP ENAM DEWA
No.TanggalNamaPriceWin
116/08 14:28RIZKI6665murni enam3,333,000
216/08 13:46FRENDYYANmurni enam6,666,000
316/08 12:51ASWORD22murni enam6,666,000
416/08 09:59W4T312murni enam6,666,000
516/08 08:58CHILOENKmurni enam6,666,000
TOP BALAK
No.TanggalNamaPriceWin
116/08 15:20NGATINJ888balak100,000
216/08 15:18BONZZ007balak100,000
316/08 15:14JHOKER33balak100,000
416/08 15:14B5D11balak100,000
516/08 15:13LODAYA99balak10,000
LATEST JACKPOT
No.TanggalNamaPriceWin
116/08 15:20NGATINJ888balak100,000
216/08 15:20FAVIN_JPmurni besar50,000
316/08 15:19WWBALAK66murni besar25,000
416/08 15:19IBP89541murni kecil50,000
516/08 15:19MONCI21murni besar5,000
616/08 15:19DEWWIQQmurni besar50,000
716/08 15:19BEXS27murni kecil50,000
816/08 15:18BONZZ007balak100,000
916/08 15:18LB999154murni kecil5,000
1016/08 15:18DEIRGI123murni kecil25,000
1116/08 15:17RUPImurni besar5,000
1216/08 15:17TEMPUR485murni besar25,000
1316/08 15:17MINTZZ99murni kecil25,000
1416/08 15:17CAPIE89murni kecil50,000
1516/08 15:16LB888317murni besar50,000
1616/08 15:16P3K3RKEL4murni besar50,000
1716/08 15:15SIKAT4BIS8murni besar50,000
1816/08 15:15FRENGKY09murni kecil50,000
1916/08 15:14DUEETT999murni kecil50,000
2016/08 15:14SERIA99murni besar25,000
2116/08 15:14BK3531lucky992,500
2216/08 15:14JHOKER33balak100,000
2316/08 15:14B5D11balak100,000
2416/08 15:13AZENG99murni besar50,000
2516/08 15:13OGOTUAmurni kecil5,000
2616/08 15:13LODAYA99balak10,000
2716/08 15:13ZOT0HLEOOImurni besar25,000
2816/08 15:12LEJIbalak50,000
2916/08 15:12S4RA4S7murni kecil50,000
3016/08 15:11ALBERLAmurni kecil5,000
3116/08 15:11HUTRI333murni besar5,000
3216/08 15:11ISLAMICbalak100,000
3316/08 15:10BKARAMOYmurni kecil50,000
3416/08 15:09BHIMO888murni besar25,000
3516/08 15:09ADEKKECILbalak100,000
3616/08 15:09JZ0QUX1YJBbalak50,000
3716/08 15:09LIMO24murni besar5,000
3816/08 15:08NOOR82balak10,000
3916/08 15:08HENDRI1Obalak10,000
4016/08 15:08ERY02murni besar25,000
4116/08 15:07CEEPOOTmurni besar50,000
4216/08 15:07AJIP8888murni kecil50,000
4316/08 15:06CAKROY99murni kecil25,000
4416/08 15:06RAREV99murni besar25,000
4516/08 15:06DUEETT999balak100,000
4616/08 15:05TAMAEmurni besar5,000
4716/08 15:05YESPORNbalak10,000
4816/08 15:05DONAE99murni kecil50,000
4916/08 15:05ABK888balak100,000
5016/08 15:04BXU4HETHYImurni besar25,000

Ceme Multi Jackpot System

Jackpot dilihat dari gabungan kartu pemain dengan kartu bandar. Bandar harus membeli jackpot sebanyak jumlah player yang sedang duduk. Sebagai contoh bila terdapat 3 pemain duduk bermain, dan bandar memutuskan untuk membeli jackpot Rp 1.000, maka pada periode tersebut bandar akan membeli jackpot sebanyak 3xRp1.000 = Rp3.000.

Jackpot bukanlah suatu keharusan untuk dibeli, namun kami memberikan suatu fitur tambahan untuk member tercinta dari www.kudapk.com.

Terdapat tiga pilihan harga jackpot yang bisa anda beli yaitu :100,500 dan 1000 rupiah.

Hadiah dari Multi jackpot system www.kudapk.com

  1. Murni Kecil x 50 harga jackpot yang anda beli.
      (contoh:anda membeli 1000 maka:1000 X 50 = 50.000)
  2. Murni Besar x 50 harga jackpot yang anda beli
      (contoh:anda membeli 1000 maka:1000 X 50 = 50.000)
  3. BALAK x 200 harga jackpot yang anda beli
      (contoh:anda membeli 1000 maka:1000 X 200 = 200.000)
  4. ENAM DEWA x 6666 harga jackpot yang anda beli
      (contoh:anda membeli 1000 maka:1000 X 6666 = 6.666.000)

Demikian adalah penjelasan dari Multi Jackpot www.kudapk.com terima kasih dan selamat bermain salam hoki dari kami

Ceme Jackpot Winner

TOP ENAM DEWA
No.TanggalNamaPriceWin
116/08 14:58ZIMBY07murni enam6,666,000
216/08 14:58SAMILAH27murni enam6,666,000
316/08 14:45BOSSUBImurni enam6,666,000
416/08 14:45K9YE76GYVRmurni enam6,666,000
516/08 14:28SXJ1GTEAVYmurni enam6,666,000
TOP BALAK
No.TanggalNamaPriceWin
116/08 15:19BODEX24balak100,000
216/08 15:19NANANG212balak200,000
316/08 15:18B46PISWURI543balak200,000
416/08 15:18DAULAY1980balak20,000
516/08 15:18Y2SML6V7OMbalak100,000
LATEST JACKPOT
No.TanggalNamaPriceWin
116/08 15:20AHOY27murni besar50,000
216/08 15:20IBI76murni kecil50,000
316/08 15:20B01AZARYA919murni kecil50,000
416/08 15:20YESSY28murni kecil25,000
516/08 15:20DEKA87murni kecil25,000
616/08 15:20BATUAHGG4murni kecil25,000
716/08 15:19SHONSUKEmurni kecil50,000
816/08 15:19NANANG212murni besar50,000
916/08 15:19UNA1725murni besar5,000
1016/08 15:19BIZNAKmurni besar50,000
1116/08 15:19BODEX24balak100,000
1216/08 15:19MKLY2murni kecil50,000
1316/08 15:19P4411170murni kecil50,000
1416/08 15:19EMPON69murni kecil50,000
1516/08 15:19JOYAYAmurni kecil50,000
1616/08 15:19QQUANGmurni kecil50,000
1716/08 15:19BOLENKSmurni besar50,000
1816/08 15:19NANANG212balak200,000
1916/08 15:19ZAF18murni kecil50,000
2016/08 15:19BOBOGO22murni besar50,000
2116/08 15:18SUPERSKOPmurni kecil50,000
2216/08 15:18JOYO80murni besar5,000
2316/08 15:18PW01murni kecil5,000
2416/08 15:18B46PISWURI543balak200,000
2516/08 15:18DAULAY1980balak20,000
2616/08 15:18GANDEZ12murni kecil5,000
2716/08 15:18JP_0090murni kecil50,000
2816/08 15:18WEDUS4567murni kecil50,000
2916/08 15:18ZYNGACERIAmurni besar5,000
3016/08 15:18Y2SML6V7OMbalak100,000
3116/08 15:18T988SIMONmurni besar25,000
3216/08 15:18AGUNGPR123murni kecil50,000
3316/08 15:18MRTIYANmurni kecil25,000
3416/08 15:18SELOSO27balak200,000
3516/08 15:18KUYUNG98balak200,000
3616/08 15:17A99_99murni kecil50,000
3716/08 15:17DADANG999murni besar50,000
3816/08 15:17LUCKY61balak200,000
3916/08 15:17DPOKERmurni kecil25,000
4016/08 15:17SPIONNmurni kecil5,000
4116/08 15:17TFYABOSmurni kecil25,000
4216/08 15:17M_BANEZbalak100,000
4316/08 15:17BP884075balak100,000
4416/08 15:17EMPON69murni kecil50,000
4516/08 15:17LMN99balak20,000
4616/08 15:16AGUNGPR123murni kecil50,000
4716/08 15:16ACEHJAYA9murni kecil25,000
4816/08 15:16CAKARAN99murni besar50,000
4916/08 15:16AHAE88balak200,000
5016/08 15:16BOKEKBOSS9murni kecil50,000